Location: Newark
(48.9358°N, 1.4000°E)
Time: 01:57:46
(UTC+00:00)

N. Korean satellite - Pass Details

Date: 22 October 2019
Orbit: 456 x 506 km, 97.2° (Epoch: 12 November)

Event Time Altitude Azimuth Distance (km) Brightness Sun altitude
Rises 05:28:59 0° 19° (NNE) 2,562 10.4 -9.9°
Reaches altitude 10° 05:31:09 10° 27° (NNE) 1,685 9.6 -9.5°
Maximum altitude 05:34:35 40° 98° (E) 740 8.2 -9.0°
Drops below altitude 10° 05:38:03 10° 169° (S) 1,695 9.6 -8.4°
Sets 05:40:13 0° 177° (S) 2,580 10.4 -8.0°
